Weather in Sumy

Russia / Penza Oblast     52°42′09″N   44°43′05″E
temp.,
°C
wind,
m/s
gust,
m/s
humid.,
%
clouds,
%
prec.,
mm/h
press.,
hPa
HPBL,
m
2 december, thu
thu200:00−2sw510725 0.0 999604
03:00−2sw61079100 0.0 1000637
06:00−2sw61190100 0.1 1001781
09:00−1w6117551 0.3 10041081
12:00−2w7959100 0.0 10061194
15:00−2wsw6106392 0.0 1008950
18:00−3wsw61267100 0.0 1010753
21:00−2sw6126684 0.0 1010613
3 december, fri
fri300:00−3ssw71591100 0.1 1009634
03:00−1sw71696100 1.0 1009622
06:00+1sw71597100 0.4 1009556
09:00+1sw61396100 0.4 1010499
12:00+2sw61494100 0.0 1011546
15:00+2ssw51298100 0.0 1012417
18:00+2ssw61398100 0.0 1013365
21:00+3s71497100 0.1 1013427
4 december, sat
sat400:00+3ssw8189188 0.0 1012489
03:00+2s8197675 0.0 1011494
06:00+2ssw91979100 0.0 1009555
09:00+3ssw81784100 0.3 1009569
12:00+3sw61396100 2.8 1009776
15:00+1wnw25100100 4.2 1011177
18:000wsw2592100 0.0 1013267
21:000w3784100 0.0 1014318
5 december, sun
sun500:00−2w37855 0.0 1015320
03:00−2wnw38875 0.0 1016488
06:00−3wnw36845 0.0 1018488
09:00−2wnw3574100 0.0 1019402
12:00−1nw3467100 0.0 1020485
15:00−1nw23705 0.0 1021218
18:00−2nne11765 0.0 102229
21:00−3ne227796 0.0 102351
6 december, mon
mon600:00−3ene2377100 0.0 102463
03:00−3e2476100 0.0 1025144
06:00−3e3675100 0.0 1025186
09:00−3e3672100 0.0 1027252
12:00−1ese4664100 0.0 1027351
15:00−1ese4866100 0.0 1027402
18:00−2ese5107191 0.0 1028419
21:00−2se71279100 0.1 1028501